Hourly Data Report for November 12, 2019

SHEARWATER RCS
NOVA SCOTIA
Current Station Operator: ECCC - MSC

44°37'47.000" N
63°30'48.000" W
24.00 m
8205092
71264
AAW

Download Data

Hourly Data (November 2019)
Hourly Data Report for November 12, 2019
TIME
LST
Temp Definition
°C
Dew Point Definition
°C
Rel Hum Definition
%
Precip. Amount Definition
mm

Wind Dir Definition
10's deg

Wind Spd Definition
km/h
Visibility Definition
km
Stn Press Definition
kPa
Hmdx Definition


Wind Chill Definition


Weather Definition


00:00 3.5 0.8 82 0.0 6 10   102.06     LegendNANA
01:00 4.7 2.6 86 0.0 7 20   101.90     LegendNANA
02:00 7.8 6.3 90 0.0 10 16   101.78     LegendNANA
03:00 9.4 6.9 85 0.0 15 17   101.69     LegendNANA
04:00 9.7 7.2 85 0.0 14 19   101.54     LegendNANA
05:00 9.9 7.7 86 0.0 14 18   101.43     LegendNANA
06:00 10.5 8.3 86 0.0 14 25   101.17     LegendNANA
07:00 11.0 9.3 89 0.0 15 24   101.07     LegendNANA
08:00 11.6 10.5 93 2.9 15 26   100.92     LegendNANA
09:00 12.7 12.0 95 4.9 19 33   100.91     LegendNANA
10:00 13.7 13.0 95 0.4 19 28   100.80     LegendNANA
11:00 14.1 13.2 94 0.3 19 37   100.74     LegendNANA
12:00 14.0 13.0 94 3.0 19 26   100.56     LegendNANA
13:00 14.4 13.5 94 1.0 20 37   100.47     LegendNANA
14:00 14.4 13.4 93 2.6 20 38   100.41     LegendNANA
15:00 14.3 13.0 92 0.3 19 32   100.31     LegendNANA
16:00 14.5 13.1 91 3.1 21 35   100.30     LegendNANA
17:00 13.8 12.5 92 2.1 20 32   100.31     LegendNANA
18:00 13.4 12.2 92 2.8 22 27   100.22     LegendNANA
19:00 13.0 11.6 91 1.6 21 24   100.12     LegendNANA
20:00 12.5 11.2 92 2.4 21 25   100.13     LegendNANA
21:00 12.3 11.3 94 3.2 19 21   100.00     LegendNANA
22:00 12.2 11.3 94 3.3 20 21   99.90     LegendNANA
23:00 11.9 10.9 94 1.6 21 20   99.85     LegendNANA

Notes on Data Quality.

Legend

  • E = Estimated
  • M = Missing
  • NA = Not Available*
  • [empty] = Indicates an unobserved value
Date modified: